CZ-6A DEB, 60885

Orbit data source: Space-Track

CZ-6A DEB, 60885 is space debris in LEO originally from a launch on Tue, 06 Aug 2024 UTC launched from the Taiyaun Space Center, China (TSC). Debris objects in space refer to the collection of defunct objects orbiting the Earth. Examples of debris include non-operational satellites, rocket bodies, and fragments generated from explosions, collisions, or faulty payload assembly.

Loading next visibility...
Identifier
60885, 2024-140KQ
Orbit
LEO
Country
Flag of CNCN / PRC
Related business
Manufacturer
SAST
Mission
Spacecraft
Bus & Motor
Unknown
Mass
Unknown
Launch date (UTC)
2024-08-06 (1 year ago)
Launch vehicle
Unknown
Launch site
Taiyaun Space Center, China (TSC)
Object type
Payload
Rocket body
Debris
Shape & HBR
Unknown shape, 0.2 m
Radar Cross Section
Small (<0.1 m²)

Expand to show TLE details & history
Last TLE update: 7 hours ago

TLE from 7 hours ago
0 CZ-6A DEB
1 60885U 24140KQ  25351.27965584  .00001032  00000-0  36233-3 0  9996
2 60885  88.9745 292.4262 0040978 129.2907 231.1937 14.33843339 69546
Epoch: 2025-12-17T06:42Z
TLE epoch observation values (Epoch: 2025-12-17T06:42:42.264Z)
Latitude
-0.00001°
Longitude
105.59831°
Altitude
800.442 km
Speed
7.444 km/s
True Right ascension
19h 29m 42s
True Declination
0° 00' 00"
Sunlit
Object was in daylight at epoch
Visualization orbit readout
Latitude
Unknown
Longitude
Unknown
Altitude
Unknown
Speed
Unknown
Apparent Right ascension
Unknown
Apparent Declination
Unknown
Sunlit
N/A
Visualization observer readout
Local Sidereal Time
12:55:06
Azimuth
Unknown
Elevation
Unknown
Doppler factor
Unknown
Orbital elements
Apogee altitude
805.16 km
Perigee altitude
746.529 km
Semi-major axis
7,153.981 km
Eccentricity
0.0041
Inclination
88.9745°
RAAN
292.4262°
Arg. of periapsis
129.2907°
True anomaly
230.82895°
Mean anomaly
231.1937°
Eccentric anomaly
231.01121°
Mean motion
3.58692 °/min
Orbital period
100.36 mins
BSTAR
0.00036233
Loading maneuver chart data...
Computing Atmospheric mass density...

Documentation

Showing up to 5 results
|